TimeEST,TemperatureF,Dew PointF,Humidity,Sea Level PressureIn,VisibilityMPH,Wind Direction,Wind SpeedMPH,Gust SpeedMPH,PrecipitationIn,Events,Conditions,WindDirDegrees,DateUTC
12:55 AM,32.0,28.0,85,30.06,6.0,NNE,5.8,-,N/A,,Overcast,20,2013-12-01 05:55:00
1:55 AM,32.0,27.0,82,30.06,8.0,NE,3.5,-,N/A,,Overcast,40,2013-12-01 06:55:00
2:55 AM,30.9,26.1,82,30.07,9.0,NE,4.6,-,N/A,,Overcast,40,2013-12-01 07:55:00
3:55 AM,30.9,26.1,82,30.07,10.0,ENE,5.8,-,N/A,,Overcast,60,2013-12-01 08:55:00
4:55 AM,30.9,25.0,79,30.09,10.0,ENE,4.6,-,N/A,,Overcast,60,2013-12-01 09:55:00
5:55 AM,30.0,24.1,79,30.10,10.0,ENE,4.6,-,N/A,,Overcast,60,2013-12-01 10:55:00
6:55 AM,30.0,24.1,79,30.10,10.0,NE,6.9,-,N/A,,Overcast,40,2013-12-01 11:55:00
7:55 AM,30.0,23.0,75,30.12,10.0,ENE,4.6,-,N/A,,Overcast,70,2013-12-01 12:55:00
8:55 AM,28.9,21.9,75,30.13,10.0,ENE,5.8,-,N/A,,Overcast,70,2013-12-01 13:55:00
9:55 AM,28.9,21.0,72,30.14,10.0,ENE,3.5,-,N/A,,Overcast,70,2013-12-01 14:55:00
10:55 AM,28.9,21.0,72,30.14,10.0,ENE,5.8,-,N/A,,Overcast,70,2013-12-01 15:55:00
11:55 AM,28.9,21.9,75,30.14,10.0,ENE,3.5,-,N/A,,Overcast,70,2013-12-01 16:55:00
12:55 PM,30.0,21.9,72,30.12,10.0,Calm,Calm,-,N/A,,Overcast,0,2013-12-01 17:55:00
1:52 PM,30.2,19.4,64,30.08,10.0,NE,3.5,-,N/A,,Overcast,50,2013-12-01 18:52:00
1:55 PM,30.0,19.9,66,30.10,10.0,ENE,5.8,-,N/A,,Overcast,60,2013-12-01 18:55:00
2:55 PM,30.0,19.9,66,30.09,10.0,NE,3.5,-,N/A,,Overcast,40,2013-12-01 19:55:00
3:11 PM,30.0,19.9,66,30.07,10.0,Calm,Calm,-,N/A,,Overcast,0,2013-12-01 20:11:00
3:55 PM,30.0,19.9,66,30.09,10.0,Calm,Calm,-,N/A,,Overcast,0,2013-12-01 20:55:00
4:55 PM,28.9,19.9,69,30.10,10.0,ENE,4.6,-,N/A,,Overcast,60,2013-12-01 21:55:00
5:55 PM,28.9,19.0,67,30.09,10.0,NE,3.5,-,N/A,,Overcast,50,2013-12-01 22:55:00
6:11 PM,28.0,19.0,69,30.07,10.0,Calm,Calm,-,N/A,,Overcast,0,2013-12-01 23:11:00
6:23 PM,28.0,19.0,69,30.07,10.0,ENE,5.8,-,N/A,,Overcast,70,2013-12-01 23:23:00
6:55 PM,28.0,19.0,69,30.09,10.0,East,5.8,-,N/A,,Overcast,90,2013-12-01 23:55:00
7:55 PM,27.0,18.0,69,30.08,10.0,ENE,4.6,-,N/A,,Overcast,70,2013-12-02 00:55:00
8:55 PM,27.0,17.1,66,30.08,10.0,ENE,3.5,-,N/A,,Overcast,60,2013-12-02 01:55:00
9:55 PM,27.0,18.0,69,30.07,10.0,ENE,3.5,-,N/A,,Overcast,60,2013-12-02 02:55:00
10:55 PM,26.1,18.0,71,30.06,10.0,East,3.5,-,N/A,,Overcast,90,2013-12-02 03:55:00
11:55 PM,26.1,18.0,71,30.05,10.0,ENE,3.5,-,N/A,,Overcast,70,2013-12-02 04:55:00